Location: Montestruc
(43.7938°N, 0.6294°E)
Time: 16:50:02
(UTC+00:00)

Daily predictions for brighter satellites

Satellite Brightness Start Highest point End
(mag) Time Altitude Azimuth Time Altitude Azimuth Time Altitude Azimuth
Terra 4.0 20:13:25 10° ENE 20:14:54 11° ENE 20:16:25 10° NE
Meteor 2-10 4.0 20:10:40 10° N 20:15:45 81° E 20:20:54 10° SSE
Cosmos 1726 2.3 20:15:19 10° N 20:18:54 55° E 20:22:29 10° SSE
Lacrosse 5 2.0 20:14:21 10° NW 20:19:26 79° NE 20:24:31 10° SE
Cosmos 1315 Rocket 3.1 20:17:23 10° N 20:21:28 56° ENE 20:25:30 10° SSE
Cosmos 1452 Rocket 3.9 20:19:39 10° S 20:24:39 45° ESE 20:29:41 10° NNE
Cosmos 1844 Rocket 4.0 20:20:35 10° N 20:25:27 28° NE 20:30:19 10° ESE
SL-8 R/B 4.5 20:21:36 10° WNW 20:26:18 51° N 20:30:59 10° E
Cosmos 2056 Rocket 4.3 20:24:54 10° SW 20:30:00 57° WNW 20:35:14 10° NNE
NOSS 3-2 (A) 4.4 20:25:32 10° WSW 20:31:00 52° NW 20:37:21 10° NNE
NOSS 3-2 (C) 3.5 20:26:30 10° SW 20:32:05 81° NW 20:38:31 10° NE
ARIANE 5 R/B 3.9 20:29:22 10° SE 20:33:07 27° ENE 20:36:55 10° N
FALCON 9 DEB 3.4 20:32:41 10° SSW 20:35:58 44° SE 20:39:15 10° ENE
ATLAS 3B R/B 3.7 20:31:56 10° SSE 20:36:40 21° ESE 20:41:28 10° ENE
SPOT 1/Viking Rocket 3.8 20:34:00 10° SSE 20:38:59 55° ENE 20:44:01 10° N
Cosmos 2263 Rocket 2.8 20:33:31 10° NNW 20:39:06 56° WSW 20:44:38 10° S
Cosmos 1758 3.3 20:36:35 10° N 20:40:32 68° E 20:44:28 10° SSE
Landsat 7 3.8 20:37:23 10° SSE 20:42:09 87° ENE 20:46:56 10° NNW
Spot 2 Rocket 4.1 20:40:28 11° SE 20:45:01 44° ENE 20:49:50 10° N
Cosmos 1707 2.7 20:41:55 10° S 20:45:47 87° W 20:49:42 10° N
Okean 2 4.1 20:42:25 10° SSW 20:46:26 56° W 20:50:28 10° N
CZ-2C R/B 3.9 20:41:44 10° NNE 20:46:29 62° E 20:51:12 10° S
Lacrosse 5 rocket 1.9 20:43:29 10° S 20:46:38 27° SE 20:49:45 10° ENE
Okean 1 Rocket 3.4 20:43:51 10° NNW 20:48:12 65° W 20:52:31 10° S
ERS-1 Rocket 4.0 20:44:31 12° SE 20:48:36 33° ENE 20:53:05 10° N
In-Cosmos 22 4.1 20:43:27 10° S 20:48:40 65° E 20:53:54 10° NNE
Cosmos 1455 Rocket 3.7 20:46:05 10° N 20:50:20 41° ENE 20:53:47 14° SE
MetOp-B 4.2 20:49:06 10° SSE 20:54:27 90° WSW 20:59:51 10° NNW
Meteor 2-20 Rocket 4.4 20:50:16 10° S 20:56:21 76° E 21:02:27 10° NNE
BREEZE-M DEB (TANK) 1.9 20:56:34 10° SSW 20:58:44 35° SE 21:01:58 10° ENE
Cosmos 2333 Rocket 3.3 20:55:53 13° SSE 20:59:43 26° ESE 21:04:20 10° NE
Cosmos 1727 Rocket 4.0 20:53:47 10° S 21:00:07 86° E 21:06:26 10° N
USA 215 4.2 20:58:08 10° ENE 21:03:14 24° SE 21:08:18 10° S
Cosmos 1626 2.9 21:04:15 19° SE 21:06:18 33° E 21:09:39 10° NNE
SPOT 3 Rocket 4.1 21:01:42 10° S 21:06:46 57° W 21:11:54 10° NNW
Cosmos 1953 2.5 21:03:33 10° N 21:07:35 58° E 21:10:22 19° SSE
Cosmos 1741 Rocket 4.0 21:03:00 10° NNW 21:08:17 78° ENE 21:12:22 17° SSE
Cosmos 2219 Rocket 3.2 21:07:37 16° SSE 21:10:47 27° ESE 21:15:26 10° NE
Cosmos 1844 4.1 21:07:16 10° NNW 21:12:42 51° ENE 21:16:41 18° SE
CENTAUR R/B 4.0 21:10:05 10° WSW 21:15:48 42° NW 21:22:34 10° NNE
Cosmos 1802 Rocket 4.2 21:12:51 10° N 21:19:03 59° ENE 21:23:39 19° SSE
KORONAS-FOTON 3.9 21:21:44 11° SSW 21:25:19 72° W 21:29:07 10° N
Cosmos 1025 Rocket 3.1 21:22:43 18° S 21:25:49 64° E 21:30:09 10° NNE
Aureole 1 Rocket 4.1 21:24:30 10° NNW 21:30:27 83° ENE 21:35:49 20° SSE
CARTOSAT-1 3.7 21:27:34 19° S 21:30:33 74° WSW 21:34:54 10° NNW
Resurs 01 Rocket 3.6 21:28:32 10° SSW 21:32:03 23° W 21:35:36 10° NW
Cosmos 2360 Rocket 2.3 21:27:14 10° SSW 21:32:53 82° WNW 21:38:35 10° NNE
SL-16 R/B 3.6 21:27:42 10° SW 21:33:00 39° WNW 21:38:19 10° NNE
Cosmos 1459 Rocket 3.9 21:27:16 10° N 21:33:20 89° W 21:37:54 19° S
Cosmos 1461 2.8 21:29:52 10° NW 21:34:05 87° WSW 21:36:05 29° SSE
Cosmos 2322 Rocket 3.2 21:29:31 10° SW 21:35:01 48° WNW 21:40:33 10° NNE
Cosmos 1975 Rocket 4.0 21:35:33 10° SSW 21:39:44 47° WNW 21:44:00 10° N
Cosmos 1674 3.7 21:38:18 10° SSW 21:41:51 43° WNW 21:45:25 10° N
Cosmos 1900 4.4 21:37:27 10° NNW 21:42:21 68° NE 21:44:58 27° SE
Cosmos 1110 Rocket 4.1 21:38:19 10° SSW 21:43:29 75° WNW 21:48:42 10° NNE
SPOT 5 3.0 21:41:32 23° S 21:44:52 80° WSW 21:49:50 10° NNW
ATLAS CENTAUR R/B 2.1 21:41:47 10° NNW 21:46:01 49° NE 21:48:22 25° ESE
Meteor 2-11 Rocket 4.5 21:40:18 10° N 21:46:26 80° W 21:50:42 21° S
Cosmos 968 Rocket 4.3 21:46:06 10° N 21:50:54 38° ENE 21:53:28 23° ESE
COSMOS 2428 3.0 21:48:21 25° SSE 21:51:22 46° ESE 21:56:50 10° NE
Terra 1.8 21:49:22 28° SSE 21:51:53 87° ENE 21:56:40 10° NNW
Cosmos 2322 3.6 21:48:35 16° SSW 21:53:07 69° ESE 21:58:46 10° NNE
Cosmos 1300 2.9 21:49:37 10° N 21:53:23 56° E 21:54:30 38° SE
FALCON 9 DEB 4.1 21:54:51 29° E 21:54:51 29° E 21:56:39 10° ENE
Cosmos 2061 Rocket 4.0 21:48:45 10° N 21:55:14 86° E 21:59:12 25° S
Cosmos 1864 Rocket 4.4 21:50:56 10° N 21:57:09 85° E 22:00:48 26° S
SL-24 R/B 4.4 21:54:31 10° N 21:59:20 65° E 22:01:30 32° SSE
ATLAS CENTAUR R/B 4.5 21:59:32 16° ESE 22:00:15 16° E 22:04:59 10° ENE
Cosmos 2278 Rocket 3.6 21:55:34 10° N 22:00:26 28° NE 22:04:01 16° ESE
Cosmos 405 2.8 21:57:34 10° N 22:01:02 85° E 22:01:49 51° SSE
Lacrosse 5 3.7 21:58:21 10° WNW 22:01:53 19° WSW 22:04:03 15° SSW
Cosmos 2123 Rocket 4.0 21:59:12 19° S 22:03:57 84° W 22:10:20 10° N
Cosmos 1340 3.0 22:06:52 28° SSW 22:08:39 62° WNW 22:12:24 10° N
SL-8 R/B 3.6 22:04:15 10° WNW 22:09:03 74° SSW 22:10:57 36° SE
ARIANE 5 R/B 4.1 22:06:43 17° SSW 22:09:28 30° W 22:13:27 10° NNW
Cosmos 1844 Rocket 3.3 22:04:08 10° NW 22:09:35 49° WSW 22:12:33 25° S
Cosmos 1346 Rocket 3.4 22:11:16 37° ESE 22:11:45 39° E 22:15:30 10° NNE
FALCON 9 DEB 2.9 22:11:12 11° WSW 22:14:12 76° NW 22:17:18 10° NE
H-2A R/B 3.5 22:10:10 10° N 22:14:15 73° WNW 22:16:09 31° SSW
Cosmos 2233 Rocket 4.0 22:08:07 10° N 22:14:17 73° E 22:17:17 32° SSE
GEOS 3 Rocket 4.4 22:11:18 20° ESE 22:14:41 47° NE 22:19:47 10° NNW
FALCON 9 DEB 2.7 22:18:01 88° E 22:18:01 88° E 22:21:07 10° NE
NOSS 0 Rocket 4.5 22:16:43 32° SE 22:18:41 40° ESE 22:24:25 10° NE
SL-4 R/B 4.4 22:22:17 10° E 22:22:17 10° E 22:22:22 10° ENE
Meteor 2-5 Rocket 3.7 22:18:54 26° SSW 22:22:10 80° W 22:27:47 10° N
FALCON 9 DEB 3.1 22:21:32 18° WSW 22:23:40 67° NNW 22:26:46 10° NE
Lacrosse 5 rocket 2.5 22:22:12 10° WSW 22:25:37 37° NW 22:28:59 10° NE
ATLAS 3B R/B 2.7 22:20:03 10° SW 22:26:35 76° NW 22:33:22 10° NE
ERS-1 Rocket 4.3 22:24:30 19° SSW 22:27:21 32° W 22:31:52 10° NNW
Cosmos 1606 Rocket 4.0 22:23:50 10° N 22:28:13 51° ENE 22:29:16 41° ESE
Cosmos 1892 Rocket 4.4 22:29:33 33° ESE 22:30:04 34° E 22:34:06 10° NNE
ALOS 2 4.1 22:32:40 22° E 22:33:59 26° ENE 22:37:39 10° N
Cosmos 1980 4.2 22:36:00 37° SE 22:37:15 42° ESE 22:42:35 10° NE
Spot 4 4.2 22:39:08 40° SE 22:40:33 55° ENE 22:45:14 10° N
Cosmos 2333 Rocket 3.0 22:38:04 10° SW 22:43:38 51° WNW 22:49:13 10° NNE
USA 215 3.2 22:40:13 10° NE 22:46:49 86° SE 22:53:21 10° SW
Meteor 2-10 Rocket 3.5 22:48:17 10° NNW 22:53:21 69° W 22:54:49 45° SSW
Cosmos 2219 Rocket 3.0 22:49:15 11° SW 22:54:25 48° WNW 22:59:56 10° NNE
Cosmos 1464 Rocket 4.2 22:53:18 10° N 22:59:37 61° E 23:02:03 37° SE
Cosmos 1867 3.5 22:54:39 10° NW 23:00:11 86° WSW 23:01:49 47° SSE
Cosmos 1607 4.3 22:55:28 10° NNW 23:01:51 61° NE 23:05:04 29° ESE
Cosmos 389 Rocket 2.9 23:00:52 10° NNW 23:04:01 50° W 23:04:01 50° W
Iridium 2 3.6 23:05:20 72° WSW 23:05:29 73° W 23:09:14 10° N
COBE Rocket 4.0 23:04:31 48° SE 23:05:50 71° ENE 23:10:48 10° N
SL-16 R/B 3.5 23:06:18 24° ESE 23:06:45 24° ESE 23:11:11 10° NE
Cosmos 2237 Rocket 2.1 23:09:08 46° S 23:10:47 74° ESE 23:16:25 10° NNE
Cosmos 2228 3.8 23:08:47 10° NNW 23:12:56 42° W 23:13:45 38° WSW
Meteor 1-4 Rocket 4.1 23:13:54 10° NNE 23:16:45 25° ENE 23:16:45 25° ENE
USA 267 3.4 23:14:47 19° ESE 23:19:42 71° NE 23:26:13 10° NW
Cosmos 1455 2.3 23:16:51 10° NNW 23:20:36 67° W 23:20:36 67° W
Cosmos 1184 Rocket 3.4 23:22:45 55° N 23:22:45 55° N 23:25:24 10° N
ATLAS CENTAUR R/B 3.2 23:21:19 10° WNW 23:24:30 21° WSW 23:24:30 21° WSW
Okean 1-7 Rocket 3.4 23:27:36 70° SSE 23:28:04 83° E 23:32:33 10° N
Terra 4.3 23:29:30 10° W 23:30:16 10° W 23:31:02 10° WNW
Cosmos 1777 Rocket 4.5 23:26:31 10° NNW 23:31:42 53° ENE 23:33:25 38° ESE
Cosmos 2034 Rocket 3.9 23:27:30 10° N 23:33:43 77° E 23:35:44 45° SSE
Meteor 1-21 Rocket 4.2 23:33:20 48° SSW 23:34:58 84° W 23:40:43 10° N
COSMOS 2428 4.3 23:30:49 10° WSW 23:35:50 30° NW 23:40:53 10° N
Cosmos 1354 Rocket 4.1 23:33:06 10° NNW 23:38:25 68° WSW 23:39:29 54° SSW
Cosmos 192 4.4 23:38:55 51° SW 23:40:05 74° WNW 23:45:02 10° NNE
Cosmos 2058 Rocket 3.4 23:39:52 10° NNW 23:44:11 51° W 23:44:34 49° WSW
Cosmos 1812 Rocket 4.2 23:40:32 10° N 23:44:42 44° ENE 23:45:17 41° E
Cosmos 2278 Rocket 2.6 23:39:18 10° NW 23:44:45 49° WSW 23:45:51 43° SW
GEOS 3 Rocket 4.4 23:52:23 35° SW 23:52:46 36° WSW 23:57:40 10° NW
